Location: Unspecified
(37.6100°N, 2.7800°W)
Time: 19:18:03
(UTC+00:00)

OTV 5 (USA 277) - Visible Passes

Search period start: 18 November 2017 00:00
Search period end: 28 November 2017 00:00
Orbit: 404 x 417 km, 43.0° (Epoch: 07 September)

Date Brightness Start Highest point End Pass type
(mag) Time Alt. Az. Time Alt. Az. Time Alt. Az.
18 Nov ? 05:26:13 41° NNW 05:26:56 50° NNE 05:30:08 10° E visible
19 Nov ? 04:37:38 20° ENE 04:37:38 20° ENE 04:38:55 10° E visible
19 Nov ? 06:10:24 13° WNW 06:13:11 51° SSW 06:16:22 10° SE visible
20 Nov ? 05:21:52 70° W 05:22:09 80° SSW 05:25:26 10° ESE visible
21 Nov ? 04:33:23 18° ESE 04:33:23 18° ESE 04:34:21 10° ESE visible
21 Nov ? 06:06:09 13° W 06:08:09 20° SW 06:10:39 10° SSE visible
22 Nov ? 05:17:44 30° SSW 05:17:44 30° SSW 05:20:10 10° SSE visible
23 Nov ? 04:29:22 10° SE 04:29:22 10° SE 04:29:25 10° SE visible
